Weather History for Honolulu, HI

Change the Weather History Date:

Saturday, October 26, 2013

  Actual Average Record
Temperature  
Mean Temperature 79 °F 79 °F  
Max Temperature 85 °F 86 °F 90 °F (1984)
Min Temperature 72 °F 73 °F 63 °F (1909)
Degree Days  
Heating Degree Days 0 0  
Month to date heating degree days 0 0  
Since 1 July heating degree days 0 0  
Cooling Degree Days 14 14  
Month to date cooling degree days 360 397  
Year to date cooling degree days 3697 3876  
Growing Degree Days 28 (Base 50)    
Moisture  
Dew Point 70 °F    
Average Humidity 73    
Maximum Humidity 84    
Minimum Humidity 61    
Precipitation  
Precipitation 0.00 in 0.07 in 0.43 in (1982)
Month to date precipitation 0.18 1.46  
Year to date precipitation 10.59 11.06  
Snow  
Snow 0.00 in - - ()
Month to date snowfall 0.0  
Since 1 July snowfall 0.0  
Since 1 September snowfall 0.0  
Snow Depth 0.00 in    
Sea Level Pressure  
Sea Level Pressure 29.99 in    
Wind  
Wind Speed 4 mph (SSE)    
Max Wind Speed 12 mph    
Max Gust Speed 15 mph    
Visibility 10 miles    
Events      
T = Trace of Precipitation, MM = Missing Value Source: NWS Daily Summary

Daily Weather History Graph

Daily Weather History Graph

Search for Another Location

Airport:

Trip Planner

Search our weather history database for the weather conditions in past years. The results will help you decide how hot, cold, wet, or windy it might be!

Date:

Astronomy

Oct. 26, 2013 Rise Set
Actual Time 6:32 AM HST 5:58 PM HST
Civil Twilight 6:09 AM HST 6:21 PM HST
Nautical Twilight 5:43 AM HST 6:47 PM HST
Astronomical Twilight 5:17 AM HST 7:13 PM HST
Moon No Moon Rise 12:49 PM HST (10/26)
Length of Visible Light 12h 12m
Length of Day
11h 26m
Waning Gibbous, 51% of the Moon is Illuminated
Oct 26
Waning Gibbous
Oct 26
Last Quarter
Nov 3
New
Nov 9
First Quarter
Nov 17
Full

Hourly Weather History & Observations

Time (HST) Temp. Heat Index Dew Point Humidity Pressure Visibility Wind Dir Wind Speed Gust Speed Precip Events Conditions
12:53 AM 75.0 °F - 68.0 °F 79% 30.00 in 10.0 mi NNW 3.5 mph - N/A   Partly Cloudy
1:53 AM 73.9 °F - 68.0 °F 82% 29.98 in 10.0 mi NNW 3.5 mph - N/A   Partly Cloudy
2:53 AM 73.0 °F - 68.0 °F 84% 29.97 in 10.0 mi Calm Calm - N/A   Scattered Clouds
3:53 AM 73.0 °F - 68.0 °F 84% 29.97 in 10.0 mi Calm Calm - N/A   Scattered Clouds
4:53 AM 73.0 °F - 68.0 °F 84% 29.97 in 10.0 mi Calm Calm - N/A   Partly Cloudy
5:53 AM 73.0 °F - 68.0 °F 84% 29.98 in 10.0 mi Calm Calm - N/A   Partly Cloudy
6:53 AM 73.0 °F - 68.0 °F 84% 30.00 in 10.0 mi Calm Calm - N/A   Partly Cloudy
7:53 AM 77.0 °F - 69.1 °F 76% 30.00 in 10.0 mi North 3.5 mph - N/A   Scattered Clouds
8:53 AM 81.0 °F 84.1 °F 69.1 °F 67% 30.01 in 10.0 mi Calm Calm - N/A   Scattered Clouds
9:53 AM 81.0 °F 84.9 °F 71.1 °F 72% 30.01 in 10.0 mi South 6.9 mph - N/A   Scattered Clouds
10:53 AM 82.9 °F 87.0 °F 70.0 °F 65% 30.01 in 10.0 mi SSE 9.2 mph - N/A   Scattered Clouds
11:53 AM 82.0 °F 86.3 °F 71.1 °F 69% 29.99 in 10.0 mi SE 10.4 mph - N/A   Scattered Clouds
12:53 PM 84.0 °F 88.4 °F 70.0 °F 63% 29.97 in 10.0 mi South 9.2 mph - N/A   Scattered Clouds
1:53 PM 84.0 °F 88.4 °F 70.0 °F 63% 29.96 in 10.0 mi South 9.2 mph - N/A   Scattered Clouds
2:53 PM 84.0 °F 88.4 °F 70.0 °F 63% 29.94 in 10.0 mi SSE 10.4 mph - N/A   Scattered Clouds
3:53 PM 84.0 °F 89.0 °F 71.1 °F 65% 29.94 in 10.0 mi South 9.2 mph - N/A   Scattered Clouds
4:53 PM 82.9 °F 87.5 °F 71.1 °F 67% 29.95 in 10.0 mi SSE 8.1 mph - N/A   Scattered Clouds
5:53 PM 81.0 °F 85.2 °F 72.0 °F 74% 29.98 in 10.0 mi SSE 5.8 mph - N/A   Scattered Clouds
6:01 PM 80.6 °F 84.6 °F 71.6 °F 74% 29.98 in 10.0 mi SSE 4.6 mph - N/A   Mostly Cloudy
6:53 PM 81.0 °F 84.9 °F 71.1 °F 72% 29.99 in 10.0 mi SE 3.5 mph - N/A   Scattered Clouds
7:53 PM 80.1 °F 83.8 °F 72.0 °F 76% 30.01 in 10.0 mi SE 3.5 mph - N/A   Scattered Clouds
8:53 PM 80.1 °F 83.6 °F 71.1 °F 74% 30.03 in 9.0 mi Calm Calm - N/A   Scattered Clouds
9:53 PM 78.1 °F - 70.0 °F 76% 30.04 in 10.0 mi Calm Calm - N/A   Scattered Clouds
10:53 PM 77.0 °F - 70.0 °F 79% 30.02 in 10.0 mi Calm Calm - N/A   Partly Cloudy
11:53 PM 75.9 °F - 70.0 °F 82% 30.01 in 10.0 mi NNE 3.5 mph - N/A   Scattered Clouds